Weather observations for the past three days for
Kalskag
Metric (Imperial)
Date Time (akdt) Wind (kph) Vis. (km) Weather Sky Cond. Temperature (ºC) Relative Humidity Wind Chill (°C) Heat Index (°C) Pressure Precipitation (cm)
Air Dwpt 6 hour altimeter (cm) sea level (mb) 1 hr 3 hr 6 hr
Max. Min.
21 09:56 Calm 14.48 Overcast OVC002 12.2 12.2 12.2 10 100% 76.07 1014.4
21 08:56 Calm 0.80 Fog OVC002 11.1 11.1 100% 76.07 1014.5
21 07:56 Calm 4.83 Fog/Mist BKN004 10.6 10.6 100% 76.02 1013.8
21 06:53 Calm 2.82 Fog/Mist OVC110 10 10 100% 76.05 1014.0
21 05:56 Calm 4.83 Fog/Mist BKN100 10.6 10.6 100% 76.05 1014.0
21 04:56 Calm 8.05 Fog/Mist FEW070 OVC100 10.6 10 96% 76.05 1014.0
21 03:56 Calm 6.44 Fog/Mist BKN110 11.1 10.6 12.8 11.1 97% 76.05 1014.0
21 02:56 Calm 16.09 Mostly Cloudy BKN120 11.1 10.6 97% 76.05 1014.0
21 01:56 Calm 14.48 Overcast OVC120 11.7 11.1 96% 76.02 1013.8
21 00:56 Calm 16.09 Overcast OVC090 12.8 11.1 90% 76.02 1013.7
20 23:56 Calm 16.09 Light Rain OVC080 12.8 11.1 90% 76.02 1013.7
20 22:56 SW 6 16.09 Light Rain OVC070 12.2 11.1 93% 75.97 1013.0
20 21:56 Calm 16.09 Light Rain OVC070 12.2 11.1 20.6 12.2 93% 76.02 1013.8
20 20:56 Vrbl 6 16.09 Light Rain BKN065 OVC080 12.8 11.1 90% 76.05 1014.2
20 19:56 NW 7 16.09 Light Rain OVC065 12.8 11.1 90% 75.97 1012.9
20 18:56 E 17 G 48 12.87 Light Rain SCT049 OVC065 15 9.4 69% 76 1013.5
20 17:56 Vrbl 7 16.09 Partly Cloudy SCT110 19.4 8.3 49% 75.92 1012.3
20 16:56 Vrbl 11 16.09 Fair CLR 20 7.8 45% 75.9 1012.1
20 15:56 N 9 16.09 Fair CLR 20.6 8.3 20.6 14.4 45% 75.97 1013.0
20 14:56 Vrbl 9 16.09 Fair CLR 19.4 8.3 49% 76.02 1013.7
20 13:56 Vrbl 6 16.09 Fair CLR 18.9 7.8 49% 76.05 1014.0
20 12:56 Vrbl 6 16.09 Fair CLR 17.2 8.3 56% 76.07 1014.6
20 11:56 Calm 16.09 Fair CLR 16.7 7.8 56% 76.15 1015.5
20 10:56 Vrbl 6 16.09 Fair CLR 15 7.8 62% 76.2 1016.0
20 09:56 Calm 16.09 Fair CLR 14.4 8.9 14.4 10 70% 76.2 1016.2
20 08:56 Vrbl 6 16.09 Fair CLR 13.3 8.9 75% 76.23 1016.3
20 07:56 E 11 16.09 Fair CLR 11.1 7.8 80% 76.23 1016.5
20 06:56 E 7 16.09 A Few Clouds FEW110 10 7.8 86% 9 76.2 1016.3
20 05:56 E 7 16.09 A Few Clouds FEW120 10 7.2 83% 9 76.23 1016.4
20 04:56 E 6 16.09 Partly Cloudy FEW065 SCT090 10.6 7.2 80% 76.23 1016.3
20 03:56 E 7 16.09 Overcast OVC100 11.7 7.2 14.4 11.7 74% 76.2 1016.1
20 02:56 E 6 16.09 Overcast BKN100 OVC120 11.7 7.2 74% 76.2 1016.1
20 01:56 NE 6 16.09 Overcast OVC110 12.2 7.2 72% 76.2 1016.0
20 00:56 E 6 16.09 Overcast FEW085 OVC100 12.2 7.8 75% 76.17 1016.0
19 23:56 Calm 16.09 Overcast BKN049 BKN060 OVC100 12.2 8.9 80% 76.17 1015.7
19 22:56 Calm 16.09 Overcast OVC055 13.3 9.4 77% 76.17 1015.7
19 21:56 Calm 16.09 Overcast SCT050 OVC100 14.4 8.9 17.2 14.4 70% 76.15 1015.5
19 20:56 Calm 16.09 Overcast BKN060 OVC100 15 7.8 62% 76.12 1015.2
19 19:56 Vrbl 6 16.09 Overcast BKN047 OVC060 15 7.8 62% 76.12 1015.2
19 18:56 SW 7 16.09 Overcast OVC045 15.6 8.9 65% 76.1 1014.8
19 17:56 E 7 16.09 Overcast OVC049 15.6 7.2 58% 76.07 1014.6
19 16:56 Vrbl 6 16.09 Overcast OVC045 15.6 7.8 60% 76.12 1015.0
19 15:56 Calm 16.09 Overcast OVC060 16.1 7.2 16.1 12.2 56% 76.12 1015.1
19 14:56 Vrbl 7 16.09 Overcast BKN038 OVC047 14.4 7.8 65% 76.1 1014.8
19 13:56 Calm 16.09 Overcast OVC065 15 8.3 64% 76.12 1015.1
19 12:56 Vrbl 6 16.09 Overcast OVC065 13.3 7.2 67% 76.05 1014.3
19 11:56 Vrbl 11 16.09 Overcast BKN070 OVC110 13.3 7.2 67% 76.1 1014.7
19 10:56 Calm 16.09 Overcast BKN080 OVC100 13.3 8.3 72% 76.07 1014.4
19 09:56 E 7 16.09 Overcast FEW060 OVC100 12.2 8.9 12.2 8.9 80% 76.05 1014.2
19 08:56 E 11 16.09 A Few Clouds FEW100 10 8.3 89% 9 76.05 1014.0
19 07:56 E 9 16.09 Overcast BKN065 OVC100 10 8.3 89% 9 76.02 1013.7
19 06:56 E 7 16.09 Overcast OVC055 9.4 8.3 93% 9 76.02 1013.6
19 05:56 E 9 16.09 Mostly Cloudy SCT055 BKN085 8.9 7.8 93% 8 76 1013.6
19 04:56 E 6 16.09 Overcast OVC080 9.4 8.9 97% 76 1013.4
19 03:56 Calm 16.09 Light Rain FEW011 SCT034 OVC044 9.4 8.9 11.7 9.4 97% 76 1013.3
19 02:56 E 6 16.09 Overcast OVC012 10 9.4 96% 75.92 1012.6
19 01:56 Calm 16.09 Overcast OVC031 10 9.4 96% 75.97 1013.2
19 00:56 Calm 14.48 Overcast BKN033 BKN045 OVC055 10.6 10 96% 75.97 1013.0
18 23:56 Calm 16.09 Light Rain OVC049 11.1 10.6 97% 75.95 1012.8
18 22:56 Calm 16.09 Light Rain FEW042 BKN060 OVC100 11.7 10.6 93% 75.92 1012.3
18 21:56 Calm 16.09 Overcast OVC085 13.3 9.4 14.4 12.2 77% 75.92 1012.3
18 20:56 SW 6 16.09 Overcast FEW027 BKN070 OVC100 12.8 9.4 80% 75.9 1012.0
18 19:56 SW 7 16.09 Light Rain BKN026 BKN060 13.9 9.4 74% 75.92 1012.4
18 18:56 Vrbl 9 16.09 Mostly Cloudy FEW024 BKN120 14.4 9.4 72% 75.9 1012.0
18 17:56 W 6 16.09 Light Rain FEW041 OVC065 12.8 10.6 87% 75.92 1012.5
18 16:56 S 6 16.09 Light Rain FEW021 OVC065 13.9 10 78% 75.97 1013.1
18 14:56 Vrbl 6 16.09 Light Rain FEW045 OVC060 13.3 10 81% 75.97 1013.1
18 13:56 Vrbl 7 16.09 Mostly Cloudy FEW041 BKN070 BKN085 15.6 10 70% 75.95 1012.8
18 12:56 Vrbl 6 16.09 Overcast OVC065 15 9.4 69% 75.92 1012.5
18 11:56 Vrbl 7 16.09 Overcast OVC065 14.4 10 75% 75.95 1012.7
18 10:56 Vrbl 7 16.09 Mostly Cloudy SCT013 BKN065 13.9 10.6 81% 75.95 1012.9
Date Time (akdt) Wind (kph) Vis. (km) Weather Sky Cond. Air Dwpt Max. Min. Relative Humidity Wind Chill (°C) Heat Index (°C) altimeter (cm) sea level (mb) 1 hr 3 hr 6 hr
6 hour
Temperature (ºC) Pressure Precipitation (cm)